Orbital elements:
    C/2004 U1 (LINEAR)
Epoch 2004 Dec. 21.0 TT = JDT 2453360.5
T 2004 Dec. 8.74392 TT                                  MPC
q   2.6593221            (2000.0)            P               Q
z  +0.0003965      Peri.   20.12301     -0.15313684     +0.69651664
 +/-0.0000384      Node   112.54545     +0.77056190     -0.35996226
e   0.9989456      Incl.  130.62244     +0.61869497     +0.62071873
Residuals in seconds of arc
041016 699  1.0-  0.5-    041126 118  0.4+  0.0     041210 379  0.3+  0.0
041016 699  0.1-  0.4+    041126 118  0.6+  0.0     041210 379  0.0   0.4-
041016 699  0.5-  0.6-    041126 118  0.6+  0.1-    041210 213  0.3-  0.3+
041016 699  1.0+  0.7-    041126 118  0.6+  0.0     041210 213  0.4-  0.2+
041019 704  0.4+  0.7+    041128 213  0.3+  0.2+    041210 213  0.4-  0.3+
041019 704  1.0+  0.5-    041128 213  0.2+  0.2+    041210 213  0.4-  0.3+
041019 704  1.4+  1.8+    041128 213  0.2+  0.4+    041210 213  0.4-  0.3+
041020 113  1.1-  0.0     041201 704  0.1-  1.0+    041210 561  0.1+  0.1+
041020 113  0.7-  0.1+    041201 704  0.6-  0.6+    041210 561  1.8+  1.3-
041020 113  0.8-  0.4+    041201 704  0.5-  0.5+    041210 A32  0.2-  0.0
041020 113  0.5-  0.3+    041201 704  0.3-  0.7+    041210 561 (2.9-  2.1+)
041020 854  0.2-  1.2-    041201 704  0.3-  0.2+    041210 A32  0.0   0.0
041020 854  0.6-  0.3-    041202 349  0.3-  0.1-    041210 A32  0.2-  0.2+
041020 854  0.1+  0.3-    041202 349  0.2-  0.1+    041210 A32  0.1-  0.0
041021 J95  0.5-  0.6-    041202 349  0.2-  0.1+    041211 J78  0.5-  0.2+
041021 J95  0.1+  0.1-    041202 349  0.2-  0.1-    041211 J78  0.4-  0.8+
041021 J95  1.3-  0.2-    041203 850  0.8+  0.0     041211 J78  0.5-  0.3+
041021 J95  1.2+  0.1-    041203 850  0.3-  0.2+    041211 A01  0.3+  0.3-
041021 J95  0.3+  0.4-    041203 850  0.3+  0.7-    041211 A01  0.2-  0.2-
041021 704  0.4+  0.2+    041203 850  0.4-  0.0     041211 A01  0.2-  0.2-
041021 704  0.9-  0.7+    041203 349  0.2+  0.2+    041211 360  0.1+  0.0
041021 704  0.5+  0.3+    041203 349  0.1+  0.2+    041211 360  0.0   0.1-
041021 704  0.5-  0.1-    041203 D83  0.8+  0.0     041211 D70  0.3-  0.7+
041021 704  0.3-  0.4+    041203 D83  0.5+  0.2-    041211 D70  0.1-  0.4+
041021 704  1.4+  0.3+    041203 D83  0.1+  0.2-    041211 D70  0.3-  0.4+
041021 704  0.2-  0.9+    041203 D83  0.3+  0.7-    041212 H41  0.2+  0.3-
041021 704  0.4-  0.3+    041203 349  0.0   0.1+    041212 H41  0.1+  0.4-
041021 D74  0.4+  1.1+    041203 349  0.1+  0.0     041212 H41  0.1+  0.4-
041021 D74  0.1+  0.6-    041204 A46  0.5-  0.3-    041212 H41  0.3+  0.4-
041021 D74  0.0   0.4+    041204 A46  0.0   0.2-    041212 H41  0.1+  0.4-
041021 D74  0.3+  0.3+    041204 A46  0.1-  0.1-    041213 945  0.8-  0.7+
041022 349  0.2+  0.5-    041204 A46  0.2-  0.2-    041213 945  0.9-  0.8+
041022 349  0.8+  0.7+    041204 A46  0.1+  0.0     041213 945  0.7-  0.8+
041022 349  0.1-  0.7+    041204 A46  0.0   0.2-    041213 945  0.8-  0.7+
041023 170  0.4+  0.3-    041205 349  0.0   0.0     041213 945  0.9-  0.8+
041023 170  0.4+  0.2+    041205 349  0.1+  0.2-    041213 379  0.1-  0.3-
041023 170  0.2+  0.1+    041205 349  0.2-  0.1-    041213 379  0.4+  0.1+
041023 170  0.8+  0.1+    041205 349  0.2-  0.0     041213 379  0.8+  0.7-
041023 360  0.1+  0.2-    041205 A32  0.0   0.1+    041213 213  0.4+  0.4-
041023 360  0.1-  0.3+    041205 A32  0.2+  0.2+    041213 213  0.3+  0.0
041023 360  0.4+  0.0     041205 A32  0.2+  0.2+    041213 213  0.2+  0.1-
041024 704  0.6+  0.1+    041205 A32  0.1+  0.1+    041215 A39  0.1+  0.1-
041024 704  0.7-  0.0     041206 D83  0.7-  1.0-    041215 A39  0.0   0.4+
041024 704  0.1-  0.4+    041206 D83  0.8-  0.9-    041215 A39  0.2+  0.0
041024 704  0.2+  0.2+    041206 D83  0.1-  0.8-    041215 A39  0.0   0.0
041024 704  0.5-  0.0     041206 D83  0.8-  0.7-    041215 379  0.1+  0.1+
041106 213  0.9-  1.3+    041206 352  0.1-  0.4-    041215 379  0.3+  0.2+
041106 213  1.4-  0.9+    041206 352  0.1+  0.2-    041215 379  0.1+  0.2+
041109 204  0.6+  0.0     041206 352  0.2-  0.2-    041215 379  0.4+  0.2+
041109 204  0.3-  0.2+    041206 372  0.4-  0.7+    041215 213  0.3+  0.2+
041112 360  0.0   0.1-    041206 372  0.1+  0.4+    041215 213  0.2+  0.1+
041112 360  0.1-  0.1+    041206 379  0.2+  0.2-    041215 213  0.4+  0.1+
041116 349  0.2+  0.0     041206 379  0.0   0.1+    041216 240  0.1-  0.1+
041116 349  0.1-  0.1+    041206 379  0.2-  0.3-    041216 240  0.2-  0.0
041116 349  0.4-  0.2-    041206 379  0.1+  0.1+    041216 240  0.2-  0.0
041120 J76 (0.1+  2.3+)   041207 379  0.0   0.0     041216 240  0.2-  0.0
041120 J76  0.1-  0.8+    041207 379  0.3+  0.2+    041216 240  0.3-  0.0
041120 J76  0.5-  0.1-    041207 379  0.4+  0.4-    041216 240  0.2-  0.0
041120 D70  0.8-  1.7+    041207 379  0.2+  0.0     041216 240  0.2-  0.0
041120 D70  0.7-  0.4+    041207 379  0.3+  0.4-    041216 240  0.1-  0.1+
041120 D70  0.5+  0.8+    041207 A46  0.1+  0.3-    041216 240  0.1-  0.0
041121 130  0.1-  0.1-    041207 A46  0.1+  0.4-    041216 360  0.1+  0.1+
041121 130  0.6+  0.5-    041207 A46  0.1+  0.3-    041216 360  0.2+  0.2+
041121 130  0.1-  0.4+    041207 A46  0.2+  0.3-    041217 H41  0.0   0.0
041121 130  0.2+  0.0     041207 A46  0.1+  0.3-    041217 H41  0.1+  0.0
041121 A32 (0.6+  2.9-)   041207 A46  0.2+  0.4-    041217 H41  0.1+  0.0
041121 A32 (0.5+  2.2-)   041208 246  0.2+  0.2-    041217 H41  0.1+  0.1+
041121 A32  1.0+  1.8-    041208 246  0.3+  0.2-    041217 H41  0.1+  0.0
041121 A32 (0.9+  2.4-)   041208 246  0.5+  0.4-    041217 H41  0.0   0.0
041122 704  0.0   0.2+    041208 246  0.3+  0.1-    041217 379  0.4-  0.3-
041122 704  0.1+  0.5+    041208 246  0.3+  0.2-    041217 379  0.2+  0.1-
041122 704  0.3+  0.2+    041208 246  0.4+  0.1-    041217 379  0.0   0.3+
041122 704  0.2-  0.9-    041208 379  0.3+  0.3-    041217 379  0.0   0.1+
041122 704  0.1-  0.0     041208 379  0.2-  0.3+    041217 J78  0.2-  0.3-
041122 349  0.1-  0.1-    041208 379  0.1-  0.1-    041217 J78  0.9-  0.4-
041122 349  0.1-  0.1-    041208 379  0.5+  0.2-    041217 J78  0.4+  0.5+
041122 349  0.1-  0.3-    041208 379  0.4+  0.1-    041218 213  0.5-  0.0
041122 A31 (0.5-  2.3-)   041208 A18  0.0   0.4-    041218 213  0.2+  0.3-
041122 A31 (3.0-  0.7+)   041210 379  0.7+  0.4+    041218 213  0.1-  0.3-
041126 118  0.5+  0.0     041210 379  0.0   0.3+

     The "original" and "future" barycentric values of 1/a are +0.000712
and +0.001041 (+/- 0.000038) AU^-1, respectively.

Brian G. Marsden             (C) Copyright 2004 MPC           M.P.E.C. 2004-Y11

Read MPEC 2004-Y10 Read MPEC 2004-Y12


Our Web policy. Index to the CBAT/MPC/ICQ pages.

